[[{"header":{"parameterUnit":"m.s-1","parameterCategory":2,"la1":30.2992,"la2":30.254,"lo1":-89.0895,"lo2":-89.0443,"dy":0.0025,"dx":0.0025,"nx":19,"ny":19,"refTime":"2026-04-09T09:00:00:Z","depth":"0","parameterNumber":2,"parameterNumberName":"U-component_of_CURRENTS"},"data":[0,0,0,-0.2073,-0.2075,-0.2121,-0.2121,-0.2187,-0.2188,0,0,0,0,0,0,0,0,0,0,0,-0.2048,-0.2049,-0.2073,-0.2075,-0.2121,-0.2121,-0.2187,-0.2188,0,0,0,0,0,0,0,0,0,0,0,-0.2048,-0.2049,-0.2049,-0.2075,-0.2121,-0.2121,-0.2187,-0.2149,0,0,0,0,0,0,0,0,0,0,-0.2103,-0.2074,-0.2049,-0.2049,-0.2075,-0.2121,-0.2121,-0.2147,-0.2152,-0.2169,0,-0.2173,0,-0.2189,-0.2193,-0.2193,0,0,0,-0.2071,-0.207,-0.2092,-0.2049,-0.2076,-0.2121,-0.2099,-0.215,-0.2155,-0.2175,-0.2174,-0.2177,-0.219,-0.2193,-0.2194,-0.2317,-0.2318,0,0,-0.2068,-0.205,-0.2088,-0.2095,-0.2084,-0.2098,-0.2101,-0.2153,-0.2151,-0.2175,-0.2179,-0.2191,-0.2194,-0.2194,-0.2316,-0.2317,0,0,0,-0.2064,-0.2048,-0.2068,-0.2092,-0.2103,-0.2099,-0.2102,-0.2148,-0.2158,-0.218,-0.2192,-0.2194,-0.2195,-0.2315,-0.2316,-0.2342,0,0,0,-0.2062,-0.2046,-0.2067,-0.2055,-0.2102,-0.2125,-0.2097,-0.2153,-0.216,-0.2191,-0.2194,-0.2196,-0.2314,-0.2316,-0.2339,-0.2342,0,0,0,-0.2047,-0.2044,-0.2051,-0.2055,-0.2079,-0.2124,-0.2136,-0.2155,-0.2168,-0.2193,-0.2196,-0.2314,-0.2316,-0.2337,-0.2338,-0.234,0,0,0,-0.2026,-0.2039,-0.205,-0.2085,-0.2078,-0.216,-0.2135,-0.2184,-0.221,-0.2195,-0.2314,-0.2316,-0.2336,-0.2336,-0.2338,-0.2228,-0.2226,0,0,-0.2035,-0.2039,-0.2068,-0.208,-0.2161,-0.2153,-0.2237,-0.2248,-0.2246,-0.2295,-0.2298,-0.234,-0.2338,-0.2339,-0.2337,-0.2332,0,0,0,-0.2068,-0.2085,-0.2115,-0.2163,-0.2219,-0.2268,-0.229,-0.23,-0.2333,-0.227,-0.2372,-0.237,-0.2369,-0.2301,-0.2298,-0.2252,-0.2325,-0.2325,-0.2325,-0.202,-0.2087,-0.2146,-0.2231,-0.2287,-0.2353,-0.2384,-0.2404,-0.2397,-0.2417,-0.2415,-0.2466,-0.2396,-0.2392,-0.2348,-0.2447,-0.2447,-0.2447,-0.2447,-0.2041,-0.2073,-0.2171,-0.2249,-0.2325,-0.2388,-0.2467,-0.2465,-0.2497,-0.2482,-0.2479,-0.2362,-0.2389,-0.2344,-0.245,-0.2449,-0.2449,-0.2449,-0.2449,-0.2001,-0.2025,-0.2092,-0.2201,-0.2291,-0.2382,-0.2438,-0.2489,-0.2508,-0.2522,-0.2423,-0.242,-0.2355,-0.251,-0.251,-0.251,-0.251,-0.251,-0.251,-0.1907,-0.1985,-0.2021,-0.2147,-0.2196,-0.2285,-0.2407,-0.2432,-0.2442,-0.2442,-0.244,-0.2371,-0.2484,-0.2453,-0.2511,-0.2511,-0.2511,-0.2511,-0.251,-0.1833,-0.1857,-0.191,-0.1958,-0.2086,-0.2107,-0.2268,-0.2302,-0.2349,-0.2323,-0.2286,-0.2395,-0.2368,-0.2369,-0.2336,-0.2359,-0.2359,-0.2359,-0.2359,-0.1736,-0.1769,-0.179,-0.1839,-0.1918,-0.2019,-0.1994,-0.2067,-0.2133,-0.2128,-0.2202,-0.2163,-0.2171,-0.2131,-0.2138,-0.2101,-0.2064,-0.2064,-0.2064,-0.1656,-0.1688,-0.1655,-0.1736,-0.1829,-0.1876,-0.1796,-0.1836,-0.1962,-0.2053,-0.2166,-0.2178,-0.2125,-0.2141,-0.2083,-0.2096,-0.2035,0,0]},{"header":{"parameterUnit":"m.s-1","parameterCategory":2,"la1":30.2992,"la2":30.254,"lo1":-89.0895,"lo2":-89.0443,"dy":0.0025,"dx":0.0025,"nx":19,"ny":19,"refTime":"2026-04-09T09:00:00:Z","depth":"0","parameterNumber":3,"parameterNumberName":"V-component_of_CURRENTS"},"data":[0,0,0,-0.0221,-0.022,-0.0131,-0.0131,0.0021,0.0022,0,0,0,0,0,0,0,0,0,0,0,-0.0252,-0.0251,-0.0221,-0.0219,-0.0131,-0.013,0.0021,0.0022,0,0,0,0,0,0,0,0,0,0,0,-0.0252,-0.0251,-0.0251,-0.0219,-0.0131,-0.013,0.0021,-0.0052,0,0,0,0,0,0,0,0,0,0,-0.0141,-0.0187,-0.0252,-0.0251,-0.0219,-0.0131,-0.013,-0.0056,-0.0047,-0.0013,0,-0.0009,0,0.0005,0.0032,0.0032,0,0,0,-0.0204,-0.0195,-0.0167,-0.0251,-0.0218,-0.0132,-0.0167,-0.0051,-0.0042,-0.0002,-0.0007,-0.0002,0.0007,0.0033,0.0034,0.0151,0.0151,0,0,-0.0209,-0.0234,-0.0173,-0.0161,-0.0207,-0.017,-0.0164,-0.0046,-0.0043,-0.0007,0.0002,0.001,0.0034,0.0035,0.015,0.0151,0,0,0,-0.0233,-0.0238,-0.0213,-0.0167,-0.0157,-0.0167,-0.0161,-0.0048,-0.0039,0.0003,0.0011,0.0035,0.0036,0.015,0.015,0.0061,0,0,0,-0.0235,-0.0253,-0.0215,-0.0229,-0.016,-0.0109,-0.0166,-0.0047,-0.0033,0.0011,0.0035,0.0038,0.015,0.015,0.0063,0.0026,0,0,0,-0.0254,-0.0254,-0.0247,-0.0231,-0.0199,-0.011,-0.0094,-0.0044,-0.0029,0.0033,0.0038,0.015,0.015,0.0065,0.003,0.0053,0,0,0,-0.0277,-0.0286,-0.0248,-0.0257,-0.02,-0.0157,-0.0095,-0.0051,-0.0005,0.0035,0.015,0.015,0.0065,0.0032,0.0054,0.0091,0.0088,0,0,-0.0304,-0.029,-0.0296,-0.026,-0.0254,-0.0167,-0.0135,-0.0049,0.0019,0.0116,0.0119,0.0062,0.003,0.0053,0.0119,0.0115,0,0,0,-0.0315,-0.0327,-0.0315,-0.0304,-0.025,-0.0199,-0.0107,-0.0051,0.0033,0.0047,0.0098,0.0081,0.0098,0.0124,0.0121,0.0322,0.0153,0.0153,0.0153,-0.0383,-0.0364,-0.0383,-0.0351,-0.0315,-0.0211,-0.0155,-0.0056,0.0008,0.0037,0.0034,0.0025,0.0052,0.005,0.0256,0.0064,0.0063,0.0063,0.0063,-0.0458,-0.048,-0.0448,-0.0461,-0.0388,-0.0344,-0.02,-0.0138,-0.0033,0.0005,0.0026,0.006,0.0041,0.0263,0.0058,0.0059,0.0059,0.006,0.006,-0.0522,-0.0533,-0.0537,-0.0554,-0.0525,-0.0428,-0.0372,-0.025,-0.0117,-0.0096,-0.0009,-0.0007,0.017,-0.0074,-0.0074,-0.0074,-0.0075,-0.0075,-0.0075,-0.0588,-0.0593,-0.0645,-0.0648,-0.0657,-0.0619,-0.0465,-0.0376,-0.0198,-0.0086,-0.0084,0.0206,-0.0015,-0.0031,-0.0076,-0.0076,-0.0075,-0.0075,-0.0075,-0.0675,-0.0671,-0.0761,-0.079,-0.0808,-0.0796,-0.0643,-0.0414,-0.028,-0.0182,0.0206,-0.0051,-0.0006,-0.0002,-0.0015,-0.0052,-0.0052,-0.0052,-0.0052,-0.0728,-0.0735,-0.0857,-0.0924,-0.0954,-0.0877,-0.0748,-0.0467,-0.0009,0.0246,0.0329,0.0383,0.0373,0.0445,0.044,0.0438,0.0516,0.0518,0.0518,-0.0784,-0.0822,-0.0917,-0.0982,-0.1022,-0.0957,-0.0814,-0.0465,0.0227,0.0563,0.0603,0.0579,0.0679,0.0648,0.0775,0.0751,0.0754,0,0]}],[{"header":{"parameterUnit":"m.s-1","parameterCategory":2,"la1":30.2992,"la2":30.254,"lo1":-89.0895,"lo2":-89.0443,"dy":0.0025,"dx":0.0025,"nx":19,"ny":19,"refTime":"2026-04-09T09:00:00:Z","depth":"2","parameterNumber":2,"parameterNumberName":"U-component_of_CURRENTS"},"data":[0,0,0,-0.1873,-0.1874,-0.1913,-0.1913,-0.196,-0.1961,0,0,0,0,0,0,0,0,0,0,0,-0.1854,-0.1854,-0.1873,-0.1874,-0.1913,-0.1913,-0.196,-0.1961,0,0,0,0,0,0,0,0,0,0,0,-0.1853,-0.1854,-0.1854,-0.1874,-0.1913,-0.1913,-0.196,-0.1931,0,0,0,0,0,0,0,0,0,0,-0.1893,-0.1872,-0.1854,-0.1854,-0.1875,-0.1913,-0.1913,-0.1929,-0.1933,-0.1943,0,-0.1948,0,-0.196,-0.1964,-0.1964,0,0,0,-0.1871,-0.1869,-0.1886,-0.1854,-0.1875,-0.1913,-0.1895,-0.1931,-0.1935,-0.1947,-0.1948,-0.195,-0.1961,-0.1965,-0.1965,-0.2067,-0.2067,0,0,-0.1869,-0.1856,-0.1883,-0.1888,-0.1884,-0.1893,-0.1896,-0.1933,-0.1933,-0.1949,-0.1952,-0.1961,-0.1965,-0.1965,-0.2066,-0.2067,0,0,0,-0.1865,-0.1854,-0.187,-0.1886,-0.1896,-0.1895,-0.1897,-0.1931,-0.1938,-0.1952,-0.1962,-0.1965,-0.1966,-0.2065,-0.2066,-0.2097,0,0,0,-0.1863,-0.1852,-0.1869,-0.1861,-0.1895,-0.1914,-0.1894,-0.1935,-0.194,-0.1962,-0.1965,-0.1966,-0.2064,-0.2066,-0.2094,-0.2098,0,0,0,-0.1852,-0.1851,-0.1856,-0.186,-0.188,-0.1913,-0.1922,-0.1936,-0.1946,-0.1964,-0.1966,-0.2064,-0.2066,-0.2092,-0.2095,-0.2097,0,0,0,-0.1836,-0.1845,-0.1856,-0.1882,-0.1879,-0.1944,-0.1922,-0.1963,-0.1983,-0.1965,-0.2065,-0.2066,-0.2091,-0.2093,-0.2095,-0.1978,-0.1976,0,0,-0.184,-0.1845,-0.1866,-0.1878,-0.1941,-0.1938,-0.2007,-0.2015,-0.2013,-0.2049,-0.2052,-0.2095,-0.2095,-0.2097,-0.208,-0.2074,0,0,0,-0.1865,-0.1877,-0.1901,-0.194,-0.1986,-0.2031,-0.2049,-0.206,-0.2092,-0.2034,-0.2123,-0.2122,-0.2121,-0.2048,-0.2045,-0.2075,-0.2074,-0.2074,-0.2074,-0.1821,-0.1876,-0.1921,-0.1991,-0.2039,-0.21,-0.213,-0.2151,-0.2145,-0.2169,-0.2167,-0.2218,-0.2143,-0.2139,-0.2196,-0.2196,-0.2196,-0.2196,-0.2196,-0.1829,-0.1852,-0.1937,-0.2,-0.2071,-0.2129,-0.2203,-0.2208,-0.2243,-0.2231,-0.2229,-0.211,-0.2136,-0.2199,-0.2199,-0.2198,-0.2198,-0.2198,-0.2198,-0.1791,-0.1808,-0.1867,-0.1958,-0.2042,-0.2129,-0.2182,-0.2236,-0.226,-0.2275,-0.2174,-0.2171,-0.2206,-0.2268,-0.2268,-0.2268,-0.2268,-0.2268,-0.2268,-0.1706,-0.1771,-0.1802,-0.191,-0.1956,-0.2041,-0.2161,-0.2186,-0.2197,-0.2196,-0.2194,-0.2241,-0.2239,-0.2211,-0.2269,-0.2269,-0.2269,-0.2268,-0.2268,-0.163,-0.1657,-0.1696,-0.174,-0.1851,-0.1864,-0.2021,-0.2054,-0.2102,-0.2074,-0.2143,-0.2146,-0.2117,-0.2118,-0.2087,-0.211,-0.211,-0.211,-0.211,-0.1542,-0.1571,-0.1583,-0.1622,-0.1686,-0.1774,-0.1732,-0.1765,-0.1864,-0.1867,-0.1877,-0.183,-0.1842,-0.1795,-0.1804,-0.1766,-0.1705,-0.1704,-0.1703,-0.1463,-0.149,-0.1455,-0.1522,-0.1597,-0.1629,-0.152,-0.1442,-0.1507,-0.1687,-0.1803,-0.2083,-0.2042,-0.205,-0.1999,-0.2004,-0.1952,0,0]},{"header":{"parameterUnit":"m.s-1","parameterCategory":2,"la1":30.2992,"la2":30.254,"lo1":-89.0895,"lo2":-89.0443,"dy":0.0025,"dx":0.0025,"nx":19,"ny":19,"refTime":"2026-04-09T09:00:00:Z","depth":"2","parameterNumber":3,"parameterNumberName":"V-component_of_CURRENTS"},"data":[0,0,0,-0.0218,-0.0217,-0.014,-0.0139,-0.0008,-0.0007,0,0,0,0,0,0,0,0,0,0,0,-0.0245,-0.0245,-0.0218,-0.0217,-0.014,-0.0139,-0.0009,-0.0007,0,0,0,0,0,0,0,0,0,0,0,-0.0245,-0.0245,-0.0245,-0.0217,-0.014,-0.0139,-0.0009,-0.0072,0,0,0,0,0,0,0,0,0,0,-0.015,-0.0191,-0.0245,-0.0245,-0.0217,-0.014,-0.0139,-0.0075,-0.0068,-0.0039,0,-0.0036,0,-0.0024,0.0001,0.0001,0,0,0,-0.0203,-0.0197,-0.0172,-0.0245,-0.0216,-0.014,-0.0171,-0.0071,-0.0063,-0.0029,-0.0035,-0.003,-0.0022,0.0002,0.0002,0.0094,0.0094,0,0,-0.0207,-0.023,-0.0178,-0.0167,-0.0207,-0.0173,-0.0168,-0.0066,-0.0065,-0.0034,-0.0027,-0.002,0.0002,0.0003,0.0094,0.0094,0,0,0,-0.0229,-0.0233,-0.0211,-0.0172,-0.0164,-0.0171,-0.0166,-0.0069,-0.0061,-0.0025,-0.0018,0.0003,0.0005,0.0094,0.0094,0.0012,0,0,0,-0.0231,-0.0247,-0.0213,-0.0226,-0.0166,-0.0122,-0.0171,-0.0068,-0.0056,-0.0019,0.0003,0.0006,0.0094,0.0094,0.0014,-0.0023,0,0,0,-0.0247,-0.0249,-0.0242,-0.0228,-0.02,-0.0123,-0.0109,-0.0065,-0.0052,0.0001,0.0006,0.0094,0.0094,0.0016,-0.0019,0.0001,0,0,0,-0.0268,-0.028,-0.0243,-0.0257,-0.0201,-0.017,-0.0109,-0.0074,-0.0035,0.0004,0.0094,0.0094,0.0016,-0.0017,0.0003,0.0035,0.0031,0,0,-0.0299,-0.0285,-0.0294,-0.0259,-0.0263,-0.0179,-0.0159,-0.0082,-0.0018,0.0065,0.0067,0.0013,-0.0019,0.0001,0.0048,0.0043,0,0,0,-0.0314,-0.0327,-0.0319,-0.0314,-0.0268,-0.0224,-0.0141,-0.0091,-0.0015,0.0005,0.0041,0.0024,0.0039,0.0063,0.0059,0.0095,0.0095,0.0095,0.0095,-0.0382,-0.0368,-0.0393,-0.0369,-0.034,-0.0248,-0.0199,-0.0108,-0.0047,-0.0021,-0.0023,-0.0037,-0.0013,-0.0015,0.0003,0.0002,0.0002,0.0002,0.0002,-0.046,-0.0486,-0.046,-0.0481,-0.0416,-0.0382,-0.0252,-0.0192,-0.0096,-0.0058,-0.0038,-0.0001,-0.0024,-0.0004,-0.0003,-0.0002,-0.0002,-0.0001,-0.0001,-0.0524,-0.0536,-0.0544,-0.0569,-0.0549,-0.0464,-0.0415,-0.0301,-0.0175,-0.0155,-0.0073,-0.0071,-0.0082,-0.0132,-0.0132,-0.0132,-0.0133,-0.0133,-0.0133,-0.0586,-0.0596,-0.0649,-0.0659,-0.0672,-0.0641,-0.0502,-0.042,-0.0253,-0.0148,-0.0146,-0.008,-0.0076,-0.0087,-0.0134,-0.0134,-0.0134,-0.0133,-0.0133,-0.0673,-0.0668,-0.0759,-0.0791,-0.0817,-0.0808,-0.067,-0.0458,-0.0334,-0.0242,-0.0117,-0.0117,-0.0076,-0.0072,-0.008,-0.0123,-0.0123,-0.0123,-0.0123,-0.0722,-0.0731,-0.0852,-0.0921,-0.0955,-0.0886,-0.0769,-0.052,-0.0265,-0.013,-0.013,-0.0112,-0.0112,-0.0071,-0.0067,-0.0074,-0.0115,-0.0116,-0.0116,-0.0778,-0.0814,-0.0908,-0.0975,-0.1019,-0.096,-0.0829,-0.0529,-0.0189,-0.0118,-0.0157,-0.0117,-0.0089,-0.0089,-0.0022,-0.0017,-0.0026,0,0]}],[{"header":{"parameterUnit":"m.s-1","parameterCategory":2,"la1":30.2992,"la2":30.254,"lo1":-89.0895,"lo2":-89.0443,"dy":0.0025,"dx":0.0025,"nx":19,"ny":19,"refTime":"2026-04-09T09:00:00:Z","depth":"4","parameterNumber":2,"parameterNumberName":"U-component_of_CURRENTS"},"data":[0,0,0,-0.134,-0.1341,-0.1415,-0.1415,-0.1446,-0.1446,0,0,0,0,0,0,0,0,0,0,0,-0.1318,-0.1319,-0.134,-0.1341,-0.1415,-0.1415,-0.1446,-0.1446,0,0,0,0,0,0,0,0,0,0,0,-0.1318,-0.1319,-0.1319,-0.1342,-0.1415,-0.1415,-0.1446,-0.1406,0,0,0,0,0,0,0,0,0,0,-0.1343,-0.1336,-0.1318,-0.1319,-0.1342,-0.1415,-0.1415,-0.1405,-0.1409,-0.1395,0,-0.1414,0,-0.1428,-0.1447,-0.1447,0,0,0,-0.1341,-0.1333,-0.1348,-0.132,-0.1343,-0.1415,-0.1382,-0.1408,-0.1412,-0.1399,-0.1414,-0.1416,-0.1429,-0.1447,-0.1447,-0.1495,-0.1496,0,0,-0.1337,-0.1333,-0.1346,-0.1351,-0.137,-0.1379,-0.1384,-0.1411,-0.1419,-0.1415,-0.1417,-0.1429,-0.1447,-0.1447,-0.1495,-0.1495,0,0,0,-0.1326,-0.133,-0.1346,-0.1349,-0.1367,-0.1381,-0.1387,-0.1419,-0.1423,-0.1417,-0.1429,-0.1447,-0.1447,-0.1494,-0.1495,-0.1538,0,0,0,-0.1323,-0.1324,-0.1345,-0.1343,-0.1367,-0.1403,-0.1394,-0.1422,-0.1425,-0.1429,-0.1447,-0.1447,-0.1494,-0.1495,-0.1536,-0.1542,0,0,0,-0.1313,-0.1323,-0.1333,-0.1343,-0.1374,-0.1403,-0.141,-0.1423,-0.1432,-0.1447,-0.1447,-0.1494,-0.1495,-0.1534,-0.1539,-0.1545,0,0,0,-0.1303,-0.1311,-0.1333,-0.1353,-0.1373,-0.1419,-0.141,-0.1448,-0.1466,-0.1447,-0.1494,-0.1495,-0.1533,-0.1538,-0.1543,-0.1344,0,0,0,-0.13,-0.1311,-0.1323,-0.1343,-0.1382,-0.1408,-0.1457,-0.1477,-0.1475,-0.1479,-0.1481,-0.1536,-0.1539,-0.1544,-0.141,0,0,0,0,-0.1313,-0.1321,-0.1338,-0.1371,-0.141,-0.1461,-0.1489,-0.1503,-0.1535,-0.1491,-0.1547,-0.1547,-0.1548,-0.1429,-0.15,-0.15,-0.15,-0.15,-0.15,-0.1279,-0.1312,-0.1338,-0.1388,-0.1431,-0.15,-0.1538,-0.1564,-0.156,-0.1588,-0.159,-0.1633,-0.151,-0.1605,-0.1605,-0.1605,-0.1605,-0.1606,-0.1606,-0.1257,-0.1261,-0.1337,-0.1377,-0.1452,-0.1509,-0.1584,-0.1607,-0.1647,-0.1638,-0.1638,-0.1493,-0.161,-0.1609,-0.1609,-0.1608,-0.1608,-0.1607,-0.1607,-0.1208,-0.1213,-0.1269,-0.1339,-0.1426,-0.1516,-0.1569,-0.1638,-0.1673,-0.1694,-0.155,-0.1654,-0.1639,-0.1695,-0.1695,-0.1695,-0.1695,-0.1695,-0.1695,-0.1118,-0.1173,-0.1202,-0.1294,-0.1348,-0.1435,-0.1564,-0.1588,-0.1651,-0.1568,-0.1702,-0.1662,-0.1659,-0.1644,-0.1696,-0.1696,-0.1696,-0.1696,-0.1696,-0.1016,-0.1063,-0.1087,-0.1136,-0.1244,-0.1293,-0.1451,-0.1473,-0.1481,-0.1441,-0.1491,-0.1501,-0.146,-0.1461,-0.1438,-0.143,-0.1428,-0.1426,0,-0.0934,-0.0962,-0.0977,-0.1014,-0.1057,-0.1193,-0.1181,-0.1248,-0.1307,-0.1264,-0.146,-0.1515,-0.1521,-0.1473,-0.1471,-0.1441,0,0,0,-0.0857,-0.0877,-0.0848,-0.0912,-0.0959,-0.1037,-0.1166,-0.114,-0.1315,-0.1271,-0.1366,-0.1381,-0.1567,-0.17,-0.1659,-0.1655,-0.1628,0,0]},{"header":{"parameterUnit":"m.s-1","parameterCategory":2,"la1":30.2992,"la2":30.254,"lo1":-89.0895,"lo2":-89.0443,"dy":0.0025,"dx":0.0025,"nx":19,"ny":19,"refTime":"2026-04-09T09:00:00:Z","depth":"4","parameterNumber":3,"parameterNumberName":"V-component_of_CURRENTS"},"data":[0,0,0,-0.0147,-0.0147,-0.0106,-0.0106,-0.0037,-0.0037,0,0,0,0,0,0,0,0,0,0,0,-0.0161,-0.0161,-0.0147,-0.0147,-0.0106,-0.0106,-0.0037,-0.0037,0,0,0,0,0,0,0,0,0,0,0,-0.0161,-0.0161,-0.0161,-0.0146,-0.0106,-0.0106,-0.0038,-0.007,0,0,0,0,0,0,0,0,0,0,-0.011,-0.0135,-0.0161,-0.0161,-0.0146,-0.0106,-0.0106,-0.0071,-0.0068,-0.0055,0,-0.0056,0,-0.0049,-0.0033,-0.0033,0,0,0,-0.0136,-0.0139,-0.0124,-0.0161,-0.0146,-0.0106,-0.0121,-0.0069,-0.0065,-0.005,-0.0055,-0.0052,-0.0048,-0.0033,-0.0032,-0.0009,-0.0009,0,0,-0.0138,-0.0154,-0.0127,-0.0122,-0.0145,-0.0123,-0.012,-0.0067,-0.0069,-0.0054,-0.0051,-0.0047,-0.0032,-0.0032,-0.0008,-0.0009,0,0,0,-0.0152,-0.0156,-0.0143,-0.0124,-0.012,-0.0122,-0.0119,-0.0071,-0.0066,-0.005,-0.0046,-0.0032,-0.0031,-0.0008,-0.0009,-0.0075,0,0,0,-0.0153,-0.0165,-0.0144,-0.0153,-0.0122,-0.0099,-0.0124,-0.0069,-0.0063,-0.0046,-0.0032,-0.003,-0.0008,-0.0008,-0.0073,-0.0102,0,0,0,-0.0162,-0.0166,-0.0163,-0.0154,-0.0141,-0.01,-0.0091,-0.0068,-0.0061,-0.0033,-0.003,-0.0008,-0.0008,-0.0071,-0.0098,-0.0086,0,0,0,-0.0176,-0.0192,-0.0164,-0.0186,-0.0141,-0.0141,-0.0092,-0.0082,-0.0064,-0.0031,-0.0008,-0.0009,-0.0071,-0.0096,-0.0084,-0.01,0,0,0,-0.0206,-0.0196,-0.0211,-0.0185,-0.021,-0.0145,-0.0157,-0.0108,-0.0063,-0.0022,-0.0021,-0.0074,-0.0098,-0.0086,-0.0126,0,0,0,0,-0.0228,-0.0243,-0.0245,-0.0253,-0.0233,-0.0215,-0.0163,-0.013,-0.0088,-0.0055,-0.0064,-0.0077,-0.0067,-0.0071,-0.0011,-0.0011,-0.0011,-0.0011,-0.001,-0.0285,-0.0284,-0.032,-0.0317,-0.031,-0.026,-0.0233,-0.0176,-0.0131,-0.012,-0.0124,-0.0152,-0.016,-0.0115,-0.0115,-0.0115,-0.0116,-0.0116,-0.0116,-0.0354,-0.0381,-0.0382,-0.0416,-0.0387,-0.0383,-0.0303,-0.0258,-0.02,-0.0169,-0.0155,-0.0134,-0.0122,-0.0121,-0.012,-0.012,-0.0119,-0.0119,-0.0118,-0.0401,-0.0415,-0.0438,-0.0485,-0.0498,-0.0455,-0.0433,-0.0356,-0.0265,-0.0253,-0.0218,-0.0181,-0.0181,-0.0237,-0.0237,-0.0237,-0.0237,-0.0237,-0.0237,-0.0433,-0.0459,-0.0516,-0.0555,-0.0584,-0.0582,-0.0502,-0.0445,-0.0346,-0.0289,-0.0264,-0.0192,-0.0188,-0.0186,-0.0239,-0.0239,-0.0238,-0.0238,-0.0238,-0.0489,-0.0496,-0.0584,-0.0629,-0.0688,-0.0679,-0.0613,-0.0476,-0.0412,-0.0341,-0.0288,-0.0285,-0.0252,-0.0246,-0.0245,-0.0318,-0.0318,-0.0319,0,-0.0515,-0.0529,-0.064,-0.0716,-0.0759,-0.073,-0.0649,-0.0558,-0.0425,-0.0426,-0.0416,-0.0363,-0.0358,-0.0328,-0.0322,-0.0326,0,0,0,-0.0548,-0.058,-0.066,-0.0737,-0.0788,-0.0691,-0.0622,-0.0568,-0.0455,-0.0378,-0.0328,-0.0326,-0.0309,-0.0243,-0.0185,-0.018,-0.0173,0,0]}]]